Location: Finney State Fishing Lake and Wildlife Area
(38.1834°N, 100.3310°W)
Time: 13:44:29
(UTC+00:00)

SJ-12 - Pass Details

Date: 17 October 2021
Orbit: 568 x 583 km, 97.7° (Epoch: 04 December)

Event Time Altitude Azimuth Distance (km) Brightness Sun altitude
Rises 12:02:18 0° 5° (N) 2,776 7.4 -10.6°
Reaches altitude 10° 12:04:30 10° 0° (N) 1,874 6.5 -10.1°
Maximum altitude 12:08:24 48° 286° (WNW) 749 4.1 -9.4°
Drops below altitude 10° 12:12:17 10° 212° (SSW) 1,862 6.3 -8.6°
Sets 12:14:28 0° 206° (SSW) 2,756 7.2 -8.2°
